TimeMDT,TemperatureF,Dew PointF,Humidity,Sea Level PressureIn,VisibilityMPH,Wind Direction,Wind SpeedMPH,Gust SpeedMPH,PrecipitationIn,Events,Conditions,WindDirDegrees,DateUTC
12:53 AM,61.0,50.0,67,30.11,10.0,East,8.1,-,N/A,,Clear,100,2013-07-02 06:53:00
1:53 AM,59.0,50.0,72,30.10,10.0,Calm,Calm,-,N/A,,Scattered Clouds,0,2013-07-02 07:53:00
2:53 AM,57.0,50.0,77,30.09,10.0,ESE,5.8,-,N/A,,Clear,120,2013-07-02 08:53:00
3:53 AM,55.9,48.9,77,30.09,10.0,Calm,Calm,-,N/A,,Partly Cloudy,0,2013-07-02 09:53:00
4:53 AM,55.0,48.9,80,30.10,10.0,Calm,Calm,-,N/A,,Clear,0,2013-07-02 10:53:00
5:53 AM,51.1,46.0,83,30.12,10.0,Calm,Calm,-,N/A,,Clear,0,2013-07-02 11:53:00
6:53 AM,57.9,50.0,75,30.11,10.0,Calm,Calm,-,N/A,,Clear,0,2013-07-02 12:53:00
8:53 AM,70.0,51.1,51,30.12,10.0,NNW,4.6,-,N/A,,Clear,330,2013-07-02 14:53:00
9:53 AM,73.9,52.0,46,30.10,10.0,WNW,4.6,-,N/A,,Clear,300,2013-07-02 15:53:00
10:53 AM,79.0,48.0,34,30.08,10.0,NE,5.8,-,N/A,,Scattered Clouds,40,2013-07-02 16:53:00
11:53 AM,82.0,44.1,26,30.08,10.0,North,13.8,-,N/A,,Partly Cloudy,10,2013-07-02 17:53:00
12:53 PM,82.0,42.1,24,30.06,10.0,Variable,4.6,18.4,N/A,,Partly Cloudy,0,2013-07-02 18:53:00
1:53 PM,84.9,41.0,21,30.04,10.0,Variable,3.5,18.4,N/A,,Clear,0,2013-07-02 19:53:00
2:53 PM,84.0,39.0,20,30.03,10.0,Variable,4.6,-,N/A,,Partly Cloudy,0,2013-07-02 20:53:00
3:53 PM,84.9,39.9,20,30.01,10.0,North,9.2,-,N/A,,Clear,10,2013-07-02 21:53:00
4:53 PM,86.0,39.9,20,30.01,10.0,Variable,6.9,-,N/A,,Clear,0,2013-07-02 22:53:00
5:53 PM,84.0,39.0,20,30.01,10.0,Variable,6.9,-,N/A,,Clear,0,2013-07-02 23:53:00
6:53 PM,82.9,37.9,20,29.99,10.0,East,5.8,16.1,N/A,,Clear,80,2013-07-03 00:53:00
7:53 PM,79.0,37.9,23,29.98,10.0,East,8.1,-,N/A,,Clear,80,2013-07-03 01:53:00
8:53 PM,70.0,37.0,30,29.98,10.0,East,8.1,-,N/A,,Clear,80,2013-07-03 02:53:00
9:53 PM,66.0,37.0,34,29.99,10.0,East,9.2,-,N/A,,Clear,80,2013-07-03 03:53:00
10:53 PM,64.9,37.9,37,29.98,10.0,South,5.8,-,N/A,,Clear,180,2013-07-03 04:53:00
11:53 PM,64.9,44.1,47,29.96,10.0,SE,8.1,-,N/A,,Clear,140,2013-07-03 05:53:00